GLD1136 SSZR-SBNM

Flight info

Callsign GLD1136
Flight time 0h 18m
Altitude 3500
Route DCT 275642S0542557W 280151S0542202W 280933S0541935W DCT
Aircraft C172/M-SDFGIRY/S

Departure

Time 2026-05-04 22:45
Airport Luis Alberto Lehr Airport (SSZR)

Arrival

Time 2026-05-04 23:03
Airport Santo Ângelo Airport (SBNM)
Time Latitude Longitude Altitude Speed Heading
2026-05-04 22:44 -27.92009 -54.52888 1283 ft 88 kts 119°
2026-05-04 22:44 -27.92017 -54.52224 1422 ft 85 kts 83°
2026-05-04 22:44 -27.91987 -54.51557 1551 ft 84 kts 88°
2026-05-04 22:45 -27.91978 -54.50886 1677 ft 84 kts 90°
2026-05-04 22:45 -27.92061 -54.49574 1923 ft 84 kts 104°
2026-05-04 22:45 -27.92241 -54.48945 2048 ft 84 kts 111°
2026-05-04 22:46 -27.92460 -54.48343 2170 ft 83 kts 113°
2026-05-04 22:46 -27.92694 -54.47740 2294 ft 83 kts 114°
2026-05-04 22:46 -27.92928 -54.47152 2415 ft 82 kts 114°
2026-05-04 22:46 -27.93163 -54.46565 2537 ft 82 kts 114°
2026-05-04 22:47 -27.93399 -54.45977 2660 ft 82 kts 114°
2026-05-04 22:47 -27.93635 -54.45390 2783 ft 81 kts 114°
2026-05-04 22:47 -27.93790 -54.45004 2864 ft 81 kts 114°
2026-05-04 22:48 -27.94335 -54.43645 3152 ft 80 kts 114°
2026-05-04 22:48 -27.94653 -54.43138 3275 ft 81 kts 146°
2026-05-04 22:48 -27.95118 -54.42781 3415 ft 82 kts 145°
2026-05-04 22:48 -27.95600 -54.42407 3513 ft 88 kts 146°
2026-05-04 22:49 -27.96139 -54.41995 3538 ft 99 kts 146°
2026-05-04 22:49 -27.96738 -54.41540 3527 ft 108 kts 146°
2026-05-04 22:49 -27.97375 -54.41056 3512 ft 112 kts 146°
2026-05-04 22:49 -27.98023 -54.40563 3503 ft 113 kts 146°
2026-05-04 22:50 -27.98680 -54.40064 3500 ft 113 kts 146°
2026-05-04 22:50 -27.99329 -54.39570 3500 ft 113 kts 146°
2026-05-04 22:50 -27.99988 -54.39070 3500 ft 113 kts 146°
2026-05-04 22:50 -28.00643 -54.38571 3500 ft 113 kts 146°
2026-05-04 22:51 -28.01289 -54.38080 3500 ft 113 kts 146°
2026-05-04 22:51 -28.01946 -54.37580 3500 ft 113 kts 146°
2026-05-04 22:51 -28.02589 -54.37089 3500 ft 113 kts 146°
2026-05-04 22:51 -28.03303 -54.36702 3502 ft 113 kts 160°
2026-05-04 22:52 -28.04048 -54.36431 3501 ft 113 kts 163°
2026-05-04 22:52 -28.04805 -54.36178 3500 ft 113 kts 164°
2026-05-04 22:52 -28.05565 -54.35931 3500 ft 113 kts 164°
2026-05-04 22:52 -28.06315 -54.35690 3500 ft 113 kts 164°
2026-05-04 22:53 -28.07076 -54.35448 3500 ft 113 kts 164°
2026-05-04 22:53 -28.07833 -54.35206 3500 ft 113 kts 164°
2026-05-04 22:53 -28.08590 -54.34965 3500 ft 113 kts 164°
2026-05-04 22:53 -28.09344 -54.34725 3500 ft 113 kts 164°
2026-05-04 22:54 -28.09845 -54.34565 3500 ft 113 kts 164°
2026-05-04 22:54 -28.10603 -54.34324 3500 ft 113 kts 164°
2026-05-04 22:54 -28.11359 -54.34083 3500 ft 113 kts 164°
2026-05-04 22:54 -28.12371 -54.33761 3500 ft 113 kts 164°
2026-05-04 22:55 -28.12873 -54.33600 3500 ft 113 kts 164°
2026-05-04 22:55 -28.13634 -54.33358 3500 ft 113 kts 164°
2026-05-04 22:55 -28.14393 -54.33116 3500 ft 113 kts 164°
2026-05-04 22:55 -28.15149 -54.32874 3500 ft 112 kts 164°
2026-05-04 22:56 -28.15981 -54.32421 3473 ft 91 kts 138°
2026-05-04 22:56 -28.16275 -54.32099 3460 ft 85 kts 135°
2026-05-04 22:56 -28.16702 -54.31604 3332 ft 90 kts 137°
2026-05-04 22:56 -28.17202 -54.31137 3184 ft 95 kts 141°
2026-05-04 22:57 -28.17728 -54.30688 3057 ft 96 kts 146°
2026-05-04 22:57 -28.18291 -54.30269 2932 ft 96 kts 147°
2026-05-04 22:57 -28.18852 -54.29849 2808 ft 97 kts 146°
2026-05-04 22:57 -28.19394 -54.29397 2684 ft 97 kts 142°
2026-05-04 22:58 -28.19935 -54.28952 2561 ft 97 kts 144°
2026-05-04 22:58 -28.20492 -54.28513 2442 ft 96 kts 146°
2026-05-04 22:58 -28.21037 -54.28110 2386 ft 90 kts 148°
2026-05-04 22:58 -28.21557 -54.27764 2373 ft 83 kts 151°
2026-05-04 22:59 -28.22076 -54.27446 2398 ft 88 kts 150°
2026-05-04 22:59 -28.22588 -54.27043 2514 ft 94 kts 141°
2026-05-04 22:59 -28.23119 -54.26492 2521 ft 112 kts 136°
2026-05-04 22:59 -28.23695 -54.25843 2404 ft 119 kts 135°
2026-05-04 23:00 -28.24335 -54.25309 2307 ft 106 kts 150°
2026-05-04 23:00 -28.24871 -54.24825 2361 ft 92 kts 137°
2026-05-04 23:00 -28.25329 -54.24334 2368 ft 92 kts 135°
2026-05-04 23:00 -28.25786 -54.23775 2241 ft 100 kts 130°
2026-05-04 23:01 -28.26216 -54.23131 2101 ft 102 kts 125°
2026-05-04 23:01 -28.26616 -54.22493 1985 ft 99 kts 126°
2026-05-04 23:01 -28.27003 -54.21864 1899 ft 94 kts 124°
2026-05-04 23:01 -28.27330 -54.21239 1846 ft 89 kts 119°
2026-05-04 23:02 -28.27599 -54.20604 1729 ft 92 kts 111°
2026-05-04 23:02 -28.27787 -54.19894 1581 ft 93 kts 102°
2026-05-04 23:02 -28.27870 -54.19234 1457 ft 82 kts 98°
2026-05-04 23:02 -28.27968 -54.18602 1271 ft 79 kts 101°
2026-05-04 23:03 -28.28074 -54.18018 1143 ft 74 kts 101°
2026-05-04 23:03 -28.28161 -54.17484 1060 ft 54 kts 101°
2026-05-04 23:03 -28.28202 -54.17241 1060 ft 21 kts 100°
2026-05-04 23:03 -28.28212 -54.17121 1060 ft 9 kts 78°
2026-05-04 23:04 -28.28195 -54.17098 1060 ft 0 kts 11°